{"data":{"norad_id":57679,"intl_designator":"2023-124S","name":"STARLINK-30321","alt_names":[],"object_type":"PAYLOAD","status":"ACTIVE","operator":null,"country":"US","launch_date":"2023-08-22","launch_site_code":"AFWTR","launch_vehicle":null,"mission":null,"orbit_class":"UNKNOWN","rcs_meters":null,"size_class":null,"mass_kg":null,"dimensions":null,"purposes":["comms"],"wikipedia_slug":null,"has_3d_model":false,"image_url":null,"decayed_at":null,"tle_current":{"epoch":"2026-09-20T14:06:15.806016Z","epoch_age_seconds":124086,"freshness":"FRESH","line1":"1 57679U 23124S   26263.58768294 -.00000185  00000+0  56644-5 0  9998","line2":"2 57679  53.1621  18.9906 0001332  88.5490 271.5665 15.34388091173443","mean_motion":15.34388091,"eccentricity":0.0001332,"inclination_deg":53.1621,"raan_deg":18.9906,"arg_perigee_deg":88.549,"mean_anomaly_deg":271.5665,"bstar":5.6644e-6,"rev_number":17344,"period_min":93.848486471341,"perigee_km":461.82743185897,"apogee_km":463.64984112853,"semimajor_km":6840.8756364937,"source":"CELESTRAK","updated_at":"2026-09-21T09:00:33.672585Z"}}}